This demonstration page uses our WeatherBlox Daily Observations layout. Learn more.

Left ArrowRight Arrow

Hourly Observations for May 25, 2019

Temp ( °F °C ) Dew Point ( °F °C ) Humidity (%) Winds ( mph kmh ) Pressure ( in mb ) Visibility ( mi km ) Precip ( " mm )
12:15 am 00:15 Clear 57 13.7 53 11.5 87 87 S 3 6 29.83 1010 10 16 N/A
12:35 am 00:35 Clear 55 12.8 52 11.2 90 90 N N/A 29.84 1010 10 16 N/A
12:55 am 00:55 Clear 57 13.7 54 12 90 90 SSE 6 9 29.84 1011 10 16 N/A
1:15 am 01:15 Clear 56 13.4 53 11.7 90 90 SSE 5 7 29.84 1011 10 16 N/A
1:35 am 01:35 Clear 55 12.6 53 11.4 92 92 SSE 3 6 29.85 1011 10 16 N/A
1:55 am 01:55 Clear 54 12.4 52 11.3 93 93 SSE 6 9 29.86 1011 10 16 N/A
2:15 am 02:15 Clear 56 13.1 53 11.6 91 91 S 6 9 29.86 1011 10 16 N/A
2:35 am 02:35 Clear 56 13.2 53 11.6 90 90 S 5 7 29.84 1011 10 16 N/A
2:55 am 02:55 Clear 56 13.5 53 11.6 88 88 SSW 5 7 29.83 1010 10 16 N/A
3:15 am 03:15 Clear 55 13 52 11.2 89 89 SSW 3 6 29.84 1010 10 16 N/A
3:35 am 03:35 Clear 56 13.2 54 12.1 93 93 SW 7 11 29.84 1011 10 16 N/A
3:55 am 03:55 Partly Cloudy 57 14.1 56 13.5 96 96 SW 8 13 29.85 1011 10 16 N/A
4:15 am 04:15 Mostly Cloudy 60 15.5 60 15.3 99 99 SW 9 15 29.84 1010 10 16 N/A
4:35 am 04:35 Partly Cloudy 59 15 58 14.4 96 96 SW 8 13 29.84 1010 10 16 N/A
4:55 am 04:55 Clear 58 14.2 56 13.6 96 96 WSW 5 7 29.86 1011 10 16 N/A
5:15 am 05:15 Partly Cloudy 55 13 55 12.5 97 97 N 6 9 29.87 1011 10 16 N/A
5:35 am 05:35 Mostly Cloudy 56 13.1 55 12.6 97 97 N N/A 29.87 1011 10 16 N/A
5:55 am 05:55 Partly Cloudy 54 12 53 11.8 99 99 N 3 6 29.88 1012 10 16 N/A
6:15 am 06:15 Sunny 53 11.8 53 11.8 100 100 N N/A 29.88 1012 10 16 N/A
6:35 am 06:35 Sunny 53 11.4 53 11.4 100 100 NNE 3 6 29.89 1012 7 11 N/A
6:55 am 06:55 Sunny 54 12.2 54 12.2 100 100 NW 7 11 29.89 1012 10 16 N/A
7:15 am 07:15 Sunny 56 13.3 55 12.7 96 96 N 6 9 29.89 1012 10 16 N/A
7:35 am 07:35 Sunny 57 13.8 54 12.4 91 91 N 10 17 29.90 1013 10 16 N/A
7:55 am 07:55 Sunny 56 13.6 54 12 90 90 N 10 17 29.90 1013 10 16 N/A
8:15 am 08:15 Mostly Cloudy 56 13.6 53 11.8 89 89 N 13 20 29.91 1013 10 16 N/A
8:35 am 08:35 Mostly Cloudy 57 13.7 53 11.8 88 88 NNE 15 24 29.92 1013 10 16 N/A
8:55 am 08:55 Cloudy 58 14.5 54 12 85 85 NNE 12 19 29.92 1013 10 16 N/A
9:15 am 09:15 Partly Cloudy 59 15 54 12.1 83 83 NE 12 19 29.93 1014 10 16 N/A
9:35 am 09:35 Sunny 60 15.5 54 12.2 81 81 NE 7 11 29.94 1014 10 16 N/A
9:55 am 09:55 Sunny 61 15.9 54 12.3 79 79 NE 12 19 29.92 1013 10 16 N/A
10:15 am 10:15 Sunny 61 16.3 54 12.4 78 78 NNE 10 17 29.93 1013 10 16 N/A
10:35 am 10:35 Sunny 62 16.9 55 12.8 77 77 NE 8 13 29.93 1014 10 16 N/A
10:55 am 10:55 Sunny 63 17.1 55 12.7 75 75 NNE 9 15 29.94 1014 10 16 N/A
11:15 am 11:15 Sunny 64 17.6 56 13.1 75 75 ENE 9 15 29.94 1014 10 16 N/A
11:35 am 11:35 Sunny 64 17.9 56 13.3 75 75 ENE 13 20 29.93 1014 10 16 N/A
11:55 am 11:55 Mostly Cloudy 65 18.2 56 13.6 75 75 NE 10 17 29.93 1014 10 16 N/A
12:15 pm 12:15 Cloudy 65 18.5 57 13.8 74 74 ENE 10 17 29.93 1014 10 16 N/A
12:35 pm 12:35 Mostly Cloudy 66 18.8 58 14.4 76 76 NE 10 17 29.93 1013 10 16 N/A
12:55 pm 12:55 Partly Cloudy 67 19.7 59 15.1 75 75 ENE 12 19 29.92 1013 10 16 N/A
1:15 pm 13:15 Partly Cloudy 68 20.2 60 15.6 75 75 ENE 10 17 29.92 1013 10 16 N/A
1:35 pm 13:35 Partly Cloudy 69 20.6 60 15.7 74 74 ENE 7 11 29.90 1013 10 16 N/A
1:55 pm 13:55 Partly Cloudy 69 20.7 61 16 75 75 E 9 15 29.90 1013 10 16 N/A
2:15 pm 14:15 Partly Cloudy 70 20.9 61 16 74 74 ENE 9 15 29.90 1013 10 16 N/A
2:35 pm 14:35 Sunny 71 21.4 60 15.8 71 71 ENE 8 13 29.90 1012 10 16 N/A
2:55 pm 14:55 Partly Cloudy 71 21.8 61 16 70 70 ENE 10 17 29.89 1012 10 16 N/A
3:15 pm 15:15 Partly Cloudy 71 21.6 61 15.9 70 70 E 9 15 29.89 1012 10 16 N/A
3:35 pm 15:35 Partly Cloudy 72 22 61 15.9 68 68 E 6 9 29.89 1012 10 16 N/A
3:55 pm 15:55 Partly Cloudy 72 22 61 16.1 69 69 E 9 15 29.88 1012 10 16 N/A
4:15 pm 16:15 Partly Cloudy 72 22.1 61 16.2 69 69 E 8 13 29.87 1012 10 16 N/A
4:35 pm 16:35 Partly Cloudy 72 22.4 62 16.6 70 70 ENE 12 19 29.87 1011 10 16 N/A
4:55 pm 16:55 Mostly Cloudy 72 22 61 16.2 70 70 ENE 12 19 29.87 1012 10 16 N/A
5:15 pm 17:15 Mostly Cloudy 72 22.1 62 16.5 71 71 ENE 12 19 29.86 1011 10 16 N/A
5:35 pm 17:35 Mostly Cloudy 72 22.2 62 16.7 71 71 E 13 20 29.87 1011 10 16 N/A
5:55 pm 17:55 Cloudy 71 21.9 62 16.5 72 72 E 16 26 29.87 1012 10 16 N/A
6:15 pm 18:15 Mostly Cloudy 71 21.5 61 16.2 72 72 E 10 17 29.87 1012 10 16 N/A
6:35 pm 18:35 Mostly Cloudy 70 21.1 61 16.2 74 74 E 10 17 29.87 1011 10 16 N/A
6:55 pm 18:55 Partly Cloudy 69 20.8 61 16.1 75 75 ENE 12 19 29.85 1011 10 16 N/A
7:15 pm 19:15 Sunny 69 20.5 61 16 76 76 ENE 9 15 29.87 1012 10 16 N/A
7:35 pm 19:35 Sunny 68 20.1 61 16.1 78 78 ENE 10 17 29.88 1012 10 16 N/A
7:55 pm 19:55 Sunny 67 19.6 61 16.3 81 81 ENE 8 13 29.90 1013 10 16 N/A
8:15 pm 20:15 Sunny 67 19.3 61 16.3 83 83 ENE 7 11 29.90 1013 10 16 N/A
8:35 pm 20:35 Sunny 66 19 61 16.1 83 83 ENE 7 11 29.90 1012 10 16 N/A
8:55 pm 20:55 Sunny 66 19 60 15.8 82 82 ENE 7 11 29.90 1012 10 16 N/A
9:15 pm 21:15 Clear 65 18.1 60 15.7 86 86 NE 9 15 29.89 1012 10 16 N/A
9:35 pm 21:35 Clear 64 18 60 15.5 85 85 ENE 12 19 29.89 1012 10 16 N/A
9:55 pm 21:55 Clear 64 17.7 59 15.2 85 85 E 10 17 29.91 1013 10 16 N/A
10:15 pm 22:15 Clear 63 17.2 59 15 87 87 NE 9 15 29.92 1013 10 16 N/A
10:35 pm 22:35 Partly Cloudy 63 17 59 15 88 88 ENE 8 13 29.93 1014 10 16 N/A
10:55 pm 22:55 Cloudy 64 17.8 58 14.7 82 82 ENE 13 20 29.94 1014 10 16 N/A
11:15 pm 23:15 Cloudy with Light Rain 63 17.3 59 14.8 85 85 ENE 8 13 29.94 1014 10 16 N/A
11:35 pm 23:35 Mostly Cloudy 63 17.3 58 14.6 84 84 E 10 17 29.94 1014 10 16 N/A
11:55 pm 23:55 Cloudy with Nearby Thunderstorms 63 17.3 58 14.6 84 84 E 8 13 29.94 1014 10 16 N/A

Powered by AerisWeather